This demonstration page uses our WeatherBlox Daily Observations layout. Learn more.

Left ArrowRight Arrow

Hourly Observations for May 21, 2020

Temp ( °F °C ) Dew Point ( °F °C ) Humidity (%) Winds ( mph kmh ) Pressure ( in mb ) Visibility ( mi km ) Precip ( " mm )
12:51 am 00:51 Clear 62 16.7 6 -14.4 11 11 W 8 13 29.8 1009 10 16.0934 0 0
1:51 am 01:51 Clear 54 12.2 6 -14.4 14 14 E 5 7 29.81 1009 10 16.0934 0 0
2:51 am 02:51 Clear 55 12.8 7 -13.9 14 14 NNW 8 13 29.8 1009 10 16.0934 0 0
3:51 am 03:51 Clear 56 13.3 7 -13.9 14 14 N 3 6 29.8 1009 10 16.0934 0 0
4:51 am 04:51 Clear 48 8.9 6 -14.4 18 18 E 3 6 29.83 1010 10 16.0934 0 0
5:51 am 05:51 Sunny 50 10 7 -13.9 17 17 SE 5 7 29.86 1011 10 16.0934 0 0
6:51 am 06:51 Sunny 58 14.4 8 -13.3 13 13 ESE 5 7 29.87 1011 10 16.0934 0 0
7:51 am 07:51 Sunny 64 17.8 10 -12.2 12 12 VRB 3 6 29.87 1012 10 16.0934 0 0
8:51 am 08:51 Sunny 69 20.6 12 -11.1 11 11 Calm 29.87 1011 10 16.0934 0 0
9:51 am 09:51 Sunny 75 23.9 12 -11.1 9 9 NW 5 7 29.85 1011 10 16.0934 0 0
10:51 am 10:51 Sunny 79 26.1 9 -12.8 7 7 VRB 5 7 29.83 1010 10 16.0934 0 0
11:51 am 11:51 Sunny 80 26.7 12 -11.1 7 7 VRB 6 9 29.8 1009 10 16.0934 0 0
12:51 pm 12:51 Sunny 84 28.9 11 -11.7 6 6 WSW 12 19 29.78 1009 10 16.0934 0 0
1:51 pm 13:51 Sunny 85 29.4 11 -11.7 6 6 W 12 19 29.78 1008 10 16.0934 0 0
2:51 pm 14:51 Sunny 87 30.6 10 -12.2 5 5 NNW 12 19 29.75 1007 10 16.0934 0 0
3:51 pm 15:51 Sunny 87 30.6 7 -13.9 5 5 NNW 9 15 29.72 1007 10 16.0934 0 0
4:51 pm 16:51 Sunny 88 31.1 7 -13.9 4 4 NW 16 26 29.72 1007 10 16.0934 0 0
5:51 pm 17:51 Sunny 86 30 5 -15 4 4 NW 14 22 29.72 1006 10 16.0934 0 0
6:51 pm 18:51 Sunny 83 28.3 9 -12.8 6 6 NW 14 22 29.71 1006 10 16.0934 0 0
7:51 pm 19:51 Clear 75 23.9 8 -13.3 7 7 NW 8 13 29.74 1007 10 16.0934 0 0
8:51 pm 20:51 Clear 71 21.7 9 -12.8 9 9 W 9 15 29.76 1008 10 16.0934 0 0
9:51 pm 21:51 Clear 67 19.4 8 -13.3 10 10 WNW 9 15 29.78 1009 10 16.0934 0 0
10:51 pm 22:51 Clear 67 19.4 8 -13.3 10 10 WNW 12 19 29.77 1008 10 16.0934 0 0
11:51 pm 23:51 Clear 62 16.7 8 -13.3 12 12 NNW 6 9 29.79 1009 10 16.0934 0 0

Powered by AerisWeather